Regional Weather Roundup
Issued by NWS Bismarck, ND

Home | Current Version | Previous Version | Text Only | Print | Product List | Glossary On
Versions: 1 2 3 4 5 6 7 8 9 10 11 12 13 14 15 16 17 18 19 20 21 22 23 24 25 26 27 28 29 30 31 32 33 34 35 36 37 38 39 40 41 42 43 44 45 46 47 48 49 50
000
ASUS43 KBIS 240359
RWRBIS

NWR BROADCAST TEXT
NATIONAL WEATHER SERVICE BISMARCK ND
1000 PM CST SUN NOV 23 2014

NOTE: "FAIR" INDICATES FEW OR NO CLOUDS BELOW 12,000 FEET WITH NO
SIGNIFICANT WEATHER AND/OR OBSTRUCTIONS TO VISIBILITY.


CITY           SKY/WX    TMP DP  RH WIND       PRES   REMARKS
WILLISTON      CLEAR      7   3  84 NW7       29.82R WCI  -5
MINOT          MOCLDY    12   6  77 NW15      29.74R WCI  -4
MINOT AFB      NOT AVBL
BISMARCK       CLOUDY    20  13  74 N23G31    29.70R WCI   3
DICKINSON      NOT AVBL
GARRISON         N/A     15   9  76 N16G24    29.73R WCI  -1
HETTINGER ARPT CLOUDY    21  15  78 NW23G35   29.73R WCI   5
JAMESTOWN      NOT AVBL
CARRINGTON     CLOUDY    14  10  85 NW20G26   29.65S WCI  -3
CROSBY         FAIR       7   5  92 NW8       29.81S WCI  -6
HARVEY         FLURRIES  14   9  79 NW21G28   29.67F WCI  -4
HAZEN          FLURRIES  16  10  79 NW17      29.76S WCI   0
MANDAN         CLOUDY    19  14  79 NW24G32   29.69S WCI   2
OAKES            N/A     18  10  73 NW23G31   29.61S WCI   0
$$

CITY           SKY/WX    TMP DP  RH WIND       PRES   REMARKS
GRAND FORKS    FLURRIES  17  12  80 N28G35    29.60R WCI  -2
GRAND FORKS AF LGT SNOW  16  14  93 N15       29.61S FOG     WCI   1
DEVILS LAKE    CLOUDY    14   3  62 N16G24    29.63R WCI  -2
FARGO          LGT SNOW  19  15  84 NW24      29.58R FOG     WCI   2
CANDO          FLURRIES  14   9  79 N16G22    29.67S WCI  -2
CAVALIER       LGT SNOW  16  10  79 N22G35    29.63R WCI  -2
GRAFTON        FLURRIES  16  10  79 N23G38    29.62R WCI  -2
GWINNER        CLOUDY    21  12  68 NW24G30   29.60R WCI   4
ROLLA          FLURRIES   9   5  85 N25G32    29.66R WCI -13
$$

CITY           SKY/WX    TMP DP  RH WIND       PRES   REMARKS
ABERDEEN       CLOUDY    21  12  68 N18       29.64S WCI   6
MOBRIDGE       CLOUDY    24  16  71 NW25G35   29.66R WCI   8
BUFFALO          N/A     23  17  78 NW22G32   29.67S WCI   8
RAPID CITY     PTCLDY    35  20  54 NW24G39   29.71S
GLASGOW        CLEAR     15  10  80 SE5       29.81F WCI   8
SIDNEY         CLEAR     16  16 100 W7        29.84S WCI   6
WOLF POINT     CLEAR     14  10  84 NW8       29.84F WCI   3
GLENDIVE       CLEAR     10   9  92 W7        29.82F WCI   0
MILES CITY     CLEAR     22  18  85 NE8       29.81F WCI  12
BAKER          CLEAR     19  15  84 W14       29.78S WCI   6
$$

CITY           SKY/WX    TMP DP  RH WIND       PRES   REMARKS
BILLINGS       CLOUDY    35  17  47 W7        29.84F
GREAT FALLS    CLOUDY    35  22  58 SW13      29.77F
$$



USA.gov is the U.S. government's official web portal to all federal, state and local government web resources and services.